SCX2528 KATL-KAFW

Flight info

Callsign SCX2528
Flight time N/A
Altitude 30000
Route NASSA2 YAALL J14 LIT PONYY TRUUK3
Aircraft B738/M-SDE2E3FGHIRWXY/LB1

Departure

Time 2026-05-04 23:34
Airport Hartsfield Jackson Atlanta International Airport (KATL)

Arrival

Time N/A
Airport Perot Field/Fort Worth Alliance Airport (KAFW)
Time Latitude Longitude Altitude Speed Heading
2026-05-04 23:14 33.65456 -84.41844 990 ft 0 kts 308°
2026-05-04 23:25 33.65455 -84.41843 990 ft 1 kts 308°
2026-05-04 23:26 33.65446 -84.41829 998 ft 3 kts 303°
2026-05-04 23:26 33.65434 -84.41808 998 ft 3 kts 310°
2026-05-04 23:26 33.65421 -84.41793 993 ft 3 kts 324°
2026-05-04 23:26 33.65405 -84.41785 993 ft 3 kts
2026-05-04 23:27 33.65387 -84.41791 990 ft 3 kts 25°
2026-05-04 23:27 33.65377 -84.41797 992 ft 0 kts 28°
2026-05-04 23:29 33.65377 -84.41796 992 ft 1 kts 28°
2026-05-04 23:29 33.65409 -84.41773 996 ft 10 kts 39°
2026-05-04 23:29 33.65415 -84.41683 993 ft 12 kts 121°
2026-05-04 23:30 33.65371 -84.41597 991 ft 12 kts 122°
2026-05-04 23:30 33.65328 -84.41514 990 ft 12 kts 122°
2026-05-04 23:30 33.65270 -84.41454 993 ft 11 kts 173°
2026-05-04 23:30 33.65191 -84.41455 991 ft 12 kts 180°
2026-05-04 23:31 33.65120 -84.41407 1006 ft 13 kts 109°
2026-05-04 23:31 33.65120 -84.41266 1004 ft 21 kts 89°
2026-05-04 23:31 33.65120 -84.41080 1006 ft 22 kts 91°
2026-05-04 23:31 33.65065 -84.40962 1010 ft 16 kts 168°
2026-05-04 23:32 33.64956 -84.40962 1008 ft 16 kts 180°
2026-05-04 23:32 33.64856 -84.40937 1009 ft 15 kts 131°
2026-05-04 23:32 33.64845 -84.40818 1010 ft 14 kts 89°
2026-05-04 23:32 33.64846 -84.40703 1013 ft 14 kts 90°
2026-05-04 23:33 33.64833 -84.40595 1013 ft 13 kts 124°
2026-05-04 23:33 33.64750 -84.40569 1012 ft 13 kts 181°
2026-05-04 23:33 33.64681 -84.40599 1010 ft 10 kts 254°
2026-05-04 23:33 33.64679 -84.40702 1011 ft 25 kts 270°
2026-05-04 23:34 33.64680 -84.41212 1017 ft 97 kts 270°
2026-05-04 23:34 33.64675 -84.42280 1014 ft 158 kts 269°
2026-05-04 23:34 33.64690 -84.43692 1546 ft 171 kts 272°
2026-05-04 23:34 33.64778 -84.45121 2472 ft 170 kts 273°
2026-05-04 23:35 33.64844 -84.46530 3269 ft 177 kts 271°